Location: Perryvale
(54.4667°N, 113.3833°W)
Time: 00:06:29
(UTC+00:00)

Vanguard 1 Rocket - Pass Details

Date: 20 May 2024
Orbit: 649 x 4221 km, 34.3° (Epoch: 13 June)

Event Time Altitude Azimuth Distance (km) Brightness Sun altitude
Rises 18:39:33 0° 238° (WSW) 7,318 12.1 54.4°
Reaches altitude 10° 18:46:15 10° 229° (SW) 5,660 11.8 54.7°
Maximum altitude 18:57:21 25° 183° (S) 3,321 11.4 55.2°
Drops below altitude 10° 19:04:23 10° 132° (SE) 3,467 11.0 55.4°
Sets 19:07:18 0° 118° (ESE) 4,065 11.0 55.5°
